Regional Weather Roundup
Issued by NWS Northern Indiana

Home | Current Version | Previous Version | Text Only | Print | Product List | Glossary Off
Versions: 1 2 3 4 5 6 7 8 9 10 11 12 13 14 15 16 17 18 19 20 21 22 23 24 25 26 27 28 29 30 31 32 33 34 35 36 37 38 39 40 41 42 43 44 45 46 47 48 49 50

000
ASUS43 KIWX 282010
RWRIWX

KIWX WEATHER ROUNDUP
NATIONAL WEATHER SERVICE NORTHERN INDIANA
400 PM EDT THU MAY 28 2015

NOTE: "FAIR" INDICATES FEW OR NO CLOUDS BELOW 12,000 FEET WITH NO
SIGNIFICANT WEATHER AND/OR OBSTRUCTIONS TO VISIBILITY.

* THESE STATIONS ARE NOT UNDER NWS QUALITY CONTROL. THEY ALSO MAY NOT
  REPORT WEATHER SUCH AS PRECIPITATION OR FOG.

INZ001>027-282100-
NORTHERN INDIANA

CITY           SKY/WX    TMP DP  RH WIND       PRES   REMARKS
GARY*          MOSUNNY   81  57  44 NE9       30.16F
VALPARAISO     SUNNY     82  53  36 E12       30.17F
MICHIGAN CITY* SUNNY     81  55  41 SE3       30.17F
LAPORTE*       SUNNY     84  51  31 SE9G17    30.18S
KNOX*          SUNNY     81  54  39 SE14      30.16F
SOUTH BEND     SUNNY     82  53  36 SE14G21   30.17F
ELKHART*       SUNNY     81  52  36 E9        30.19F
GOSHEN         SUNNY     81  57  43 S12       30.18F
MONTICELLO*    SUNNY     81  59  47 SE5       30.15F
LOGANSPORT*    MOSUNNY   81  48  32 SE17      30.17F
ROCHESTER*     SUNNY     82  55  39 E15       30.18F
WARSAW*        SUNNY     79  59  50 E10       30.19F
ANGOLA*        SUNNY     81  57  44 SE13      30.20F
FORT WAYNE     MOSUNNY   80  59  48 E14G21    30.19F
HUNTINGTON*    MOSUNNY   80  60  50 E9G16     30.18F
PERU/GRISSOM   SUNNY     81  59  47 E12       30.15F
MARION*        MOSUNNY   80  54  40 SE9G17    30.18F

$$
INZ028>050-282100-
CENTRAL INDIANA

CITY           SKY/WX    TMP DP  RH WIND       PRES   REMARKS
LAFAYETTE      SUNNY     82  56  40 E14       30.14F
KOKOMO*        MOSUNNY   82  57  42 SE13      30.16S
MUNCIE*        SUNNY     82  56  40 SE7       30.17F
INDIANAPOLIS   MOSUNNY   83  58  42 S9        30.14F

$$
MIZ043>046-050>051-056>058-064>065-071>073-077>080-282100-
SOUTHWEST LOWER MICHIGAN

CITY           SKY/WX    TMP DP  RH WIND       PRES   REMARKS
BATTLE CREEK   MOSUNNY   80  53  39 SE12      30.20F
BENTON HARBOR  MOSUNNY   80  54  40 VRB7      30.17F
COLDWATER*     MOSUNNY   77  54  45 SE12      30.20F
HILLSDALE*     SUNNY     79  55  43 SE12G17   30.21F
HOLLAND        MOSUNNY   80  60  50 CALM      30.18F
GRAND RAPIDS   MOSUNNY   79  58  48 SE8       30.18F
KALAMAZOO      MOSUNNY   80  55  42 VRB5      30.19F
STURGIS*       SUNNY     79  54  41 SE9G20    30.19S
THREE RIVERS*  FAIR      80  52  37 E9        30.19F

$$
OHZ001>008-015>018-024>025-282100-
NORTHWEST OHIO

CITY           SKY/WX    TMP DP  RH WIND       PRES   REMARKS
WAUSEON*       FAIR      79  55  44 SE9G20    30.21F
DEFIANCE       SUNNY     80  58  46 E13       30.20F
FINDLAY        SUNNY     81  56  42 E8G17     30.19F
TOLEDO EXPRESS SUNNY     79  52  38 E8G20     30.21F
TOLEDO METCALF SUNNY     77  55  46 E7        30.23F
LIMA           SUNNY     81  59  47 E8        30.19F

$$
AND FOR LAKE MICHIGAN COASTAL AND OPEN LAKE BUOY OBSERVATIONS

STATION/POSITION TEMP    WIND        PRES    VSBY  WAVE
                 AIR SEA DIR/SP/G                  HT/PER
                 (F)     (DEG/KT/KT) (MB)    (MI)  (FT/S)
CALUMET HARBOR    71      30/  6/  9   N/A
MICHIGAN CITY     79     130/  6/ 10   N/A
BURNS HARBOR      70      30/  9/ 19 1021.7S
SAINT JOSEPH      69     350/  7/  9 1022.0S
SOUTH LAKE BUOY   57 39  190/  6/  6 1022.7F         0
4 MI NW BRIDGMAN  62 59   10/  6/  8   N/A           0
MICHIGAN CITY     62 56   20/  8/  8   N/A           1
MICHIGAN CITY CG     64              1023.9      6   1

$$
&&



USA.gov is the U.S. government's official web portal to all federal, state and local government web resources and services.